Track STARLINK-1880 now! 10-day predictions STARLINK-1880 is classified as:
1 47165U 20088AV 22186.46988096 -.00000659 00000-0 -25364-4 0 9996 2 47165 53.0536 211.5592 0001462 63.6380 296.4759 15.06402712 89637